This is the latest recevied weather packets stored in our database for station/object KF5JED-13. If no packets are shown the sender has not sent any weather packets the latest 10 day(s).
| Time | Temp. | Humidity | Pressure | Rain* | Wind** | Luminosity | Snow |
|---|---|---|---|---|---|---|---|
| 1777570857 | 16.11° C | 46% | 1017 hPa | 0 mm | - | 836 W/m² | - |
| 1777570554 | 15° C | 46% | 1017 hPa | 0 mm | - | 835 W/m² | - |
| 1777570251 | 15.56° C | 47% | 1017 hPa | 0 mm | - | 775 W/m² | - |
| 1777569951 | 15° C | 47% | 1017.1 hPa | 0 mm | - | 695 W/m² | - |
| 1777569647 | 15° C | 49% | 1016.7 hPa | 0 mm | - | 749 W/m² | - |
| 1777569344 | 15° C | 51% | 1017.1 hPa | 0 mm | - | 823 W/m² | - |
| 1777569040 | 15° C | 51% | 1017 hPa | 0 mm | - | 795 W/m² | - |
| 1777568737 | 14.44° C | 54% | 1017.3 hPa | 0 mm | - | 565 W/m² | - |
| 1777568435 | 14.44° C | 54% | 1017.5 hPa | 0 mm | - | 885 W/m² | - |
| 1777568131 | 13.89° C | 54% | 1017.5 hPa | 0 mm | - | 556 W/m² | - |
| 1777567828 | 14.44° C | 55% | 1017.6 hPa | 0 mm | - | 796 W/m² | - |
| 1777567524 | 14.44° C | 56% | 1017.5 hPa | 0 mm | - | 805 W/m² | - |
| 1777567221 | 13.89° C | 57% | 1017.7 hPa | 0 mm | - | 812 W/m² | - |
| 1777566920 | 13.89° C | 58% | 1017.2 hPa | 0 mm | - | 650 W/m² | - |
| 1777566617 | 13.33° C | 59% | 1017.5 hPa | 0 mm | - | 712 W/m² | - |
| 1777566315 | 13.33° C | 61% | 1017.6 hPa | 0 mm | - | 772 W/m² | - |
| 1777566012 | 12.78° C | 62% | 1017.7 hPa | 0 mm | - | 667 W/m² | - |
| 1777565707 | 12.78° C | 62% | 1017.5 hPa | 0 mm | - | 588 W/m² | - |
| 1777565404 | 12.78° C | 63% | 1017.5 hPa | 0 mm | - | 760 W/m² | - |
| 1777565100 | 12.22° C | 64% | 1017.6 hPa | 0 mm | - | 518 W/m² | - |
| 1777564796 | 12.22° C | 65% | 1017.5 hPa | 0 mm | - | 461 W/m² | - |
| 1777564490 | 11.67° C | 66% | 1017.7 hPa | 0 mm | - | 369 W/m² | - |
| 1777564186 | 12.22° C | 66% | 1017.6 hPa | 0 mm | - | 337 W/m² | - |
| 1777563883 | 11.67° C | 66% | 1017.8 hPa | 0 mm | - | 342 W/m² | - |
| 1777563579 | 11.67° C | 67% | 1017.7 hPa | 0 mm | - | 360 W/m² | - |
* Rain latest hour (hover to see other rain measurements)
** Current wind speed in m/s (hover to see current wind gust speed)